Wheeling, WV

1:31 PM EDT on September 20, 2017 (GMT -0400)
Wheeling-Ohio County

Weather History for KHLG - October, 2013

Change the Weather History Date:

Monday, October 21, 2013

  Actual Average Record
Temperature  
Mean Temperature 54 °F 52 °F  
Max Temperature 65 °F 61 °F 79 °F (2007)
Min Temperature 42 °F 42 °F 19 °F (1952)
Degree Days  
Heating Degree Days 11 14  
Month to date heating degree days 124 221  
Since 1 July heating degree days 248 322  
Cooling Degree Days 0    
Month to date cooling degree days 35  
Year to date cooling degree days 740  
Growing Degree Days 4 (Base 50)    
Moisture  
Dew Point 36 °F    
Average Humidity 51    
Maximum Humidity 70    
Minimum Humidity 31    
Precipitation  
Precipitation 0.00 in 0.08 in 1.52 in (2016)
Month to date precipitation 1.87 1.76  
Sea Level Pressure  
Sea Level Pressure 29.99 in    
Wind  
Wind Speed 9 mph (SSW)    
Max Wind Speed 20 mph    
Max Gust Speed 26 mph    
Visibility 10 miles    
Events      
T = Trace of Precipitation, MM = Missing Value Source: NWS Daily Summary

Daily Weather History Graph

Daily Weather History Graph

Search for Another Location

Airport or City:

Trip Planner

Search our weather history database for the weather conditions in past years. The results will help you decide how hot, cold, wet, or windy it might be!

Date:

Astronomy

Oct. 21, 2013 Rise Set
Actual Time 7:39 AM EDT 6:33 PM EDT
Civil Twilight 7:12 AM EDT 7:01 PM EDT
Nautical Twilight 6:40 AM EDT 7:32 PM EDT
Astronomical Twilight 6:09 AM EDT 8:04 PM EDT
Moon 8:25 PM EDT (10/21) 10:13 AM EDT (10/21)
Length of Visible Light 11h 49m
Length of Day
10h 53m
Waning Gibbous, 93% of the Moon is Illuminated
Oct 21
Waning Gibbous
Oct 26
Last Quarter
Nov 3
New
Nov 10
First Quarter
Nov 17
Full

Hourly Weather History & Observations

Time (EDT) Temp. Windchill Dew Point Humidity Pressure Visibility Wind Dir Wind Speed Gust Speed Precip Events Conditions
12:53 AM 46.9 °F - 35.1 °F 63% 30.06 in 10.0 mi South 6.9 mph - N/A   Clear
1:53 AM 46.0 °F 42.5 °F 35.1 °F 66% 30.05 in 10.0 mi South 6.9 mph - N/A   Clear
2:53 AM 46.0 °F 43.1 °F 35.1 °F 66% 30.05 in 10.0 mi South 5.8 mph - N/A   Clear
3:53 AM 46.0 °F 43.9 °F 35.1 °F 66% 30.04 in 10.0 mi SSE 4.6 mph - N/A   Clear
4:53 AM 45.0 °F 43.5 °F 35.1 °F 68% 30.05 in 10.0 mi South 3.5 mph - N/A   Clear
5:53 AM 45.0 °F 41.2 °F 35.1 °F 68% 30.06 in 10.0 mi South 6.9 mph - N/A   Clear
6:53 AM 44.1 °F 40.1 °F 35.1 °F 71% 30.06 in 10.0 mi South 6.9 mph - N/A   Clear
7:53 AM 43.0 °F 39.5 °F 34.0 °F 71% 30.07 in 10.0 mi South 5.8 mph - N/A   Clear
8:53 AM 46.0 °F 41.9 °F 35.1 °F 66% 30.07 in 10.0 mi South 8.1 mph - N/A   Clear
9:53 AM 50.0 °F - 36.0 °F 59% 30.07 in 10.0 mi SSW 9.2 mph - N/A   Clear
10:53 AM 54.0 °F - 37.0 °F 53% 30.05 in 10.0 mi Variable 6.9 mph - N/A   Clear
11:53 AM 57.9 °F - 37.9 °F 47% 30.04 in 10.0 mi SW 5.8 mph 16.1 mph N/A   Clear
12:53 PM 60.1 °F - 35.1 °F 39% 30.02 in 10.0 mi WSW 13.8 mph 25.3 mph N/A   Clear
1:53 PM 62.1 °F - 35.1 °F 37% 29.99 in 10.0 mi SW 16.1 mph 21.9 mph N/A   Clear
2:53 PM 64.0 °F - 34.0 °F 33% 29.95 in 10.0 mi SSW 11.5 mph 18.4 mph N/A   Clear
3:53 PM 64.0 °F - 33.1 °F 31% 29.93 in 10.0 mi South 11.5 mph 23.0 mph N/A   Clear
4:53 PM 63.0 °F - 34.0 °F 34% 29.91 in 10.0 mi SSW 12.7 mph 17.3 mph N/A   Clear
5:53 PM 62.1 °F - 34.0 °F 35% 29.91 in 10.0 mi South 11.5 mph - N/A   Clear
6:53 PM 59.0 °F - 35.1 °F 41% 29.92 in 10.0 mi SSW 9.2 mph - N/A   Clear
7:53 PM 57.9 °F - 36.0 °F 44% 29.92 in 10.0 mi SSW 9.2 mph - N/A   Partly Cloudy
8:53 PM 57.0 °F - 37.0 °F 47% 29.91 in 10.0 mi SSW 8.1 mph - N/A   Overcast
9:53 PM 57.0 °F - 37.9 °F 49% 29.90 in 10.0 mi SSW 9.2 mph - N/A   Overcast
10:53 PM 57.0 °F - 37.9 °F 49% 29.89 in 10.0 mi SSW 10.4 mph - N/A   Overcast
11:53 PM 57.0 °F - 37.9 °F 49% 29.87 in 10.0 mi SW 9.2 mph - N/A   Overcast